ORBCOMM FM 5 DEB, 51450

Orbit data source: Space-Track

ORBCOMM FM 5 DEB, 51450 is space debris in LEO originally from a launch on Tue, 23 Dec 1997 UTC launched from the Pegasus Launch, Eastern Range Air Space (ERAS). Debris objects in space refer to the collection of defunct objects orbiting the Earth. Examples of debris include non-operational satellites, rocket bodies, and fragments generated from explosions, collisions, or faulty payload assembly.

Loading next visibility...
Identifier
51450, 1997-084Z
Orbit
LEO
Country
Flag of USUS / ORB
Related business
Manufacturer
OSC-Germantown
Mission
Spacecraft
Bus & Motor
Unknown
Mass
Unknown
Launch date (UTC)
1997-12-23 (28 years ago)
Launch vehicle
Unknown
Launch site
Pegasus Launch, Eastern Range Air Space (ERAS)
Object type
Payload
Rocket body
Debris
Shape & HBR
Unknown shape, 0.1 m
Radar Cross Section
Small (<0.1 m²)

Expand to show TLE details & history
Last TLE update: 3 days ago

TLE from 3 days ago
0 ORBCOMM FM 5 DEB
1 51450U 97084Z   26170.58907759  .00004502  00000-0  94832-3 0  9999
2 51450  45.0075   4.2421 0018799 163.2100 196.9383 14.60495175108389
Epoch: 2026-06-19T14:08Z
TLE epoch observation values (Epoch: 2026-06-19T14:08:16.303Z)
Latitude
-0.00002°
Longitude
-115.64174°
Altitude
704.29 km
Speed
7.499 km/s
True Right ascension
00h 16m 58s
True Declination
0° 00' 00"
Sunlit
Object was in daylight at epoch
Visualization orbit readout
Latitude
Unknown
Longitude
Unknown
Altitude
Unknown
Speed
Unknown
Apparent Right ascension
Unknown
Apparent Declination
Unknown
Sunlit
N/A
Visualization observer readout
Local Sidereal Time
21:29:04
Azimuth
Unknown
Elevation
Unknown
Doppler factor
Unknown
Orbital elements
Apogee altitude
706.43 km
Perigee altitude
679.843 km
Semi-major axis
7,071.273 km
Eccentricity
0.00188
Inclination
45.0075°
RAAN
4.2421°
Arg. of periapsis
163.21°
True anomaly
196.87568°
Mean anomaly
196.9383°
Eccentric anomaly
196.90698°
Mean motion
3.65003 °/min
Orbital period
98.63 mins
BSTAR
0.00094832
Loading maneuver chart data...
Computing Atmospheric mass density...

Documentation

Showing up to 5 results
|